Time,TemperatureF,DewpointF,PressureIn,WindDirection,WindDirectionDegrees,WindSpeedMPH,WindSpeedGustMPH,Humidity,HourlyPrecipIn,Conditions,Clouds,dailyrainin,SoftwareType,DateUTC
2013-04-30 00:01:00,65.5,61.8,29.92,East,90,0.0,0.0,88,0.00,,,0.00,WUHU216HW,2013-04-30 04:01:00,
2013-04-30 00:02:00,65.5,61.8,29.92,East,90,0.0,0.0,88,0.00,,,0.00,WUHU216HW,2013-04-30 04:02:00,
2013-04-30 00:07:00,65.3,61.8,29.92,East,90,0.0,0.0,88,0.00,,,0.00,WUHU216HW,2013-04-30 04:07:00,
2013-04-30 00:12:00,65.5,61.8,29.92,ESE,113,1.1,1.1,88,0.00,,,0.00,WUHU216HW,2013-04-30 04:12:00,
2013-04-30 00:17:00,65.2,61.6,29.92,ESE,113,0.0,1.1,88,0.00,,,0.00,WUHU216HW,2013-04-30 04:17:00,
2013-04-30 00:22:00,65.2,61.6,29.91,ESE,113,0.7,1.1,88,0.00,,,0.00,WUHU216HW,2013-04-30 04:22:00,
2013-04-30 00:27:00,65.2,61.2,29.91,ESE,113,0.0,0.7,87,0.00,,,0.00,WUHU216HW,2013-04-30 04:27:00,
2013-04-30 00:32:00,65.0,61.0,29.91,ESE,113,0.7,0.7,87,0.00,,,0.00,WUHU216HW,2013-04-30 04:32:00,
2013-04-30 00:37:00,65.0,61.0,29.91,ESE,113,0.0,1.1,87,0.00,,,0.00,WUHU216HW,2013-04-30 04:37:00,
2013-04-30 00:42:00,65.0,61.0,29.91,ESE,113,0.0,1.1,87,0.00,,,0.00,WUHU216HW,2013-04-30 04:42:00,
2013-04-30 00:47:00,64.8,60.8,29.91,ESE,113,0.0,0.0,87,0.00,,,0.00,WUHU216HW,2013-04-30 04:47:00,
2013-04-30 00:52:00,64.8,60.8,29.91,ESE,113,0.0,0.0,87,0.00,,,0.00,WUHU216HW,2013-04-30 04:52:00,
2013-04-30 00:57:00,64.6,60.7,29.91,SSE,158,0.0,0.0,87,0.00,,,0.00,WUHU216HW,2013-04-30 04:57:00,
2013-04-30 01:02:00,64.4,60.6,29.91,SSE,158,0.2,0.4,87,0.00,,,0.00,WUHU216HW,2013-04-30 05:02:00,
2013-04-30 01:07:00,64.4,60.6,29.91,SE,135,0.7,0.9,87,0.00,,,0.00,WUHU216HW,2013-04-30 05:07:00,
2013-04-30 01:12:00,64.6,60.7,29.90,SE,135,0.4,1.3,87,0.00,,,0.00,WUHU216HW,2013-04-30 05:12:00,
2013-04-30 01:17:00,64.4,60.6,29.91,SSE,158,0.4,1.6,87,0.00,,,0.00,WUHU216HW,2013-04-30 05:17:00,
2013-04-30 01:22:00,64.4,60.6,29.91,ESE,113,1.1,1.6,87,0.00,,,0.00,WUHU216HW,2013-04-30 05:22:00,
2013-04-30 01:27:00,64.4,60.6,29.90,SE,135,0.2,1.1,87,0.00,,,0.00,WUHU216HW,2013-04-30 05:27:00,
2013-04-30 01:32:00,64.4,60.6,29.91,SE,135,0.0,1.1,87,0.00,,,0.00,WUHU216HW,2013-04-30 05:32:00,
2013-04-30 01:37:00,64.4,60.6,29.90,SE,135,0.0,0.4,87,0.00,,,0.00,WUHU216HW,2013-04-30 05:37:00,
2013-04-30 01:42:00,64.3,60.4,29.91,SE,135,0.0,0.0,87,0.00,,,0.00,WUHU216HW,2013-04-30 05:42:00,
2013-04-30 01:47:00,64.1,60.2,29.91,SE,135,0.0,0.0,87,0.00,,,0.00,WUHU216HW,2013-04-30 05:47:00,
2013-04-30 01:52:00,64.1,60.2,29.91,SE,135,0.0,0.0,87,0.00,,,0.00,WUHU216HW,2013-04-30 05:52:00,
2013-04-30 01:57:00,63.9,60.0,29.90,SE,135,0.0,0.0,87,0.00,,,0.00,WUHU216HW,2013-04-30 05:57:00,
2013-04-30 02:02:00,63.9,60.0,29.90,SE,135,0.0,0.0,87,0.00,,,0.00,WUHU216HW,2013-04-30 06:02:00,
2013-04-30 02:07:00,63.7,59.9,29.90,SE,135,0.0,0.0,87,0.00,,,0.00,WUHU216HW,2013-04-30 06:07:00,
2013-04-30 02:12:00,63.5,59.7,29.90,SE,135,0.0,0.0,87,0.00,,,0.00,WUHU216HW,2013-04-30 06:12:00,
2013-04-30 02:17:00,63.5,59.7,29.90,SE,135,0.0,0.0,87,0.00,,,0.00,WUHU216HW,2013-04-30 06:17:00,
2013-04-30 02:22:00,63.4,59.5,29.90,SE,135,0.0,0.0,87,0.00,,,0.00,WUHU216HW,2013-04-30 06:22:00,
2013-04-30 02:27:00,63.2,59.3,29.90,SE,135,0.0,0.0,87,0.00,,,0.00,WUHU216HW,2013-04-30 06:27:00,
2013-04-30 02:32:00,63.2,59.3,29.90,SE,135,0.0,0.0,87,0.00,,,0.00,WUHU216HW,2013-04-30 06:32:00,
2013-04-30 02:37:00,63.0,59.1,29.91,SE,135,0.0,0.0,87,0.00,,,0.00,WUHU216HW,2013-04-30 06:37:00,
2013-04-30 02:42:00,63.2,59.3,29.91,SE,135,0.0,0.0,87,0.00,,,0.00,WUHU216HW,2013-04-30 06:42:00,
2013-04-30 02:47:00,63.4,59.5,29.91,SE,135,0.0,0.7,87,0.00,,,0.00,WUHU216HW,2013-04-30 06:47:00,
2013-04-30 02:52:00,63.5,59.7,29.91,SE,135,0.0,0.7,87,0.00,,,0.00,WUHU216HW,2013-04-30 06:52:00,
2013-04-30 02:57:00,63.5,59.7,29.91,SE,135,0.0,0.0,87,0.00,,,0.00,WUHU216HW,2013-04-30 06:57:00,
2013-04-30 03:02:00,63.5,59.7,29.91,South,180,0.0,0.0,87,0.00,,,0.00,WUHU216HW,2013-04-30 07:02:00,
2013-04-30 03:07:00,63.7,59.9,29.91,South,180,0.0,0.0,87,0.00,,,0.00,WUHU216HW,2013-04-30 07:07:00,
2013-04-30 03:12:00,63.9,60.0,29.91,South,180,0.0,0.0,87,0.00,,,0.00,WUHU216HW,2013-04-30 07:12:00,
2013-04-30 03:17:00,63.9,60.0,29.91,South,180,0.0,0.0,87,0.00,,,0.00,WUHU216HW,2013-04-30 07:17:00,
2013-04-30 03:22:00,63.9,60.0,29.91,South,180,0.0,0.0,87,0.00,,,0.00,WUHU216HW,2013-04-30 07:22:00,
2013-04-30 03:27:00,63.7,59.9,29.91,South,180,0.0,0.2,87,0.00,,,0.00,WUHU216HW,2013-04-30 07:27:00,
2013-04-30 03:32:00,63.9,60.0,29.91,South,180,0.0,0.2,87,0.00,,,0.00,WUHU216HW,2013-04-30 07:32:00,
2013-04-30 03:37:00,63.9,60.0,29.91,South,180,0.0,0.0,87,0.00,,,0.00,WUHU216HW,2013-04-30 07:37:00,
2013-04-30 03:42:00,63.9,60.0,29.91,South,180,0.0,0.0,87,0.00,,,0.00,WUHU216HW,2013-04-30 07:42:00,
2013-04-30 03:47:00,63.9,60.0,29.91,South,180,0.0,0.0,87,0.00,,,0.00,WUHU216HW,2013-04-30 07:47:00,
2013-04-30 03:52:00,63.9,60.0,29.92,South,180,0.0,0.0,87,0.00,,,0.00,WUHU216HW,2013-04-30 07:52:00,
2013-04-30 03:57:00,64.1,60.2,29.91,South,180,0.0,0.0,87,0.00,,,0.00,WUHU216HW,2013-04-30 07:57:00,
2013-04-30 04:02:00,64.1,60.2,29.91,South,180,0.0,0.0,87,0.00,,,0.00,WUHU216HW,2013-04-30 08:02:00,
2013-04-30 04:07:00,64.3,60.4,29.92,South,180,0.0,0.0,87,0.00,,,0.00,WUHU216HW,2013-04-30 08:07:00,
2013-04-30 04:12:00,64.3,60.4,29.92,South,180,0.0,0.0,87,0.00,,,0.00,WUHU216HW,2013-04-30 08:12:00,
2013-04-30 04:17:00,64.3,60.4,29.92,South,180,0.0,0.0,87,0.00,,,0.00,WUHU216HW,2013-04-30 08:17:00,
2013-04-30 04:22:00,64.4,60.6,29.92,South,180,0.0,0.0,87,0.00,,,0.00,WUHU216HW,2013-04-30 08:22:00,
2013-04-30 04:27:00,64.4,60.6,29.92,South,180,0.0,0.0,87,0.00,,,0.00,WUHU216HW,2013-04-30 08:27:00,
2013-04-30 04:32:00,64.4,60.6,29.93,South,180,0.0,0.0,87,0.00,,,0.00,WUHU216HW,2013-04-30 08:32:00,
2013-04-30 04:37:00,64.6,60.7,29.93,South,180,0.0,0.0,87,0.00,,,0.00,WUHU216HW,2013-04-30 08:37:00,
2013-04-30 04:42:00,64.6,60.7,29.93,South,180,0.0,0.0,87,0.00,,,0.00,WUHU216HW,2013-04-30 08:42:00,
2013-04-30 04:47:00,64.8,60.8,29.92,South,180,0.0,0.0,87,0.00,,,0.00,WUHU216HW,2013-04-30 08:47:00,
2013-04-30 04:52:00,64.8,60.8,29.92,South,180,0.0,0.0,87,0.00,,,0.00,WUHU216HW,2013-04-30 08:52:00,
2013-04-30 04:57:00,64.8,60.8,29.92,South,180,0.0,0.0,87,0.00,,,0.00,WUHU216HW,2013-04-30 08:57:00,
2013-04-30 05:02:00,64.6,60.7,29.92,South,180,0.0,0.0,87,0.00,,,0.00,WUHU216HW,2013-04-30 09:02:00,
2013-04-30 05:07:00,64.8,60.8,29.91,South,180,0.0,0.0,87,0.00,,,0.00,WUHU216HW,2013-04-30 09:07:00,
2013-04-30 05:12:00,64.8,60.8,29.91,South,180,0.0,0.0,87,0.00,,,0.00,WUHU216HW,2013-04-30 09:12:00,
2013-04-30 05:17:00,64.8,60.8,29.91,South,180,0.0,0.0,87,0.00,,,0.00,WUHU216HW,2013-04-30 09:17:00,
2013-04-30 05:22:00,64.8,60.8,29.91,South,180,0.0,0.0,87,0.00,,,0.00,WUHU216HW,2013-04-30 09:22:00,
2013-04-30 05:27:00,64.8,60.8,29.91,South,180,0.0,0.0,87,0.00,,,0.00,WUHU216HW,2013-04-30 09:27:00,
2013-04-30 05:32:00,64.8,60.8,29.91,South,180,0.0,0.0,87,0.00,,,0.00,WUHU216HW,2013-04-30 09:32:00,
2013-04-30 05:37:00,65.0,61.0,29.91,South,180,0.0,0.0,87,0.00,,,0.00,WUHU216HW,2013-04-30 09:37:00,
2013-04-30 05:42:00,65.0,61.0,29.90,South,180,0.0,0.0,87,0.00,,,0.00,WUHU216HW,2013-04-30 09:42:00,
2013-04-30 05:47:00,65.0,61.0,29.90,South,180,0.0,0.0,87,0.00,,,0.00,WUHU216HW,2013-04-30 09:47:00,
2013-04-30 05:52:00,65.0,61.0,29.90,South,180,0.0,0.0,87,0.00,,,0.00,WUHU216HW,2013-04-30 09:52:00,
2013-04-30 05:57:00,65.0,61.0,29.90,South,180,0.0,0.0,87,0.00,,,0.00,WUHU216HW,2013-04-30 09:57:00,
2013-04-30 06:02:00,64.8,60.8,29.91,South,180,0.0,0.0,87,0.00,,,0.00,WUHU216HW,2013-04-30 10:02:00,
2013-04-30 06:07:00,64.8,60.8,29.91,South,180,0.0,0.0,87,0.00,,,0.00,WUHU216HW,2013-04-30 10:07:00,
2013-04-30 06:12:00,65.0,61.0,29.91,South,180,0.0,0.0,87,0.00,,,0.00,WUHU216HW,2013-04-30 10:12:00,
2013-04-30 06:17:00,64.8,60.8,29.91,South,180,0.0,0.0,87,0.00,,,0.00,WUHU216HW,2013-04-30 10:17:00,
2013-04-30 06:22:00,64.8,60.8,29.92,South,180,0.0,0.0,87,0.00,,,0.00,WUHU216HW,2013-04-30 10:22:00,
2013-04-30 06:27:00,64.8,60.8,29.92,South,180,0.0,0.0,87,0.00,,,0.00,WUHU216HW,2013-04-30 10:27:00,
2013-04-30 06:32:00,65.0,61.0,29.92,South,180,0.0,0.0,87,0.00,,,0.00,WUHU216HW,2013-04-30 10:32:00,
2013-04-30 06:37:00,65.0,61.0,29.92,South,180,0.0,0.0,87,0.00,,,0.00,WUHU216HW,2013-04-30 10:37:00,
2013-04-30 06:42:00,64.8,60.8,29.92,South,180,0.0,0.0,87,0.00,,,0.00,WUHU216HW,2013-04-30 10:42:00,
2013-04-30 06:47:00,64.8,60.8,29.92,South,180,0.0,0.0,87,0.00,,,0.00,WUHU216HW,2013-04-30 10:47:00,
2013-04-30 06:52:00,64.8,60.8,29.92,South,180,0.0,0.0,87,0.00,,,0.00,WUHU216HW,2013-04-30 10:52:00,
2013-04-30 06:57:00,65.0,61.0,29.93,South,180,0.0,0.0,87,0.00,,,0.00,WUHU216HW,2013-04-30 10:57:00,
2013-04-30 07:02:00,65.2,61.6,29.92,South,180,0.0,0.0,88,0.00,,,0.00,WUHU216HW,2013-04-30 11:02:00,
2013-04-30 07:07:00,65.2,61.6,29.93,South,180,0.0,0.0,88,0.00,,,0.00,WUHU216HW,2013-04-30 11:07:00,
2013-04-30 07:12:00,65.2,61.6,29.93,South,180,0.0,0.0,88,0.00,,,0.00,WUHU216HW,2013-04-30 11:12:00,
2013-04-30 07:17:00,65.2,61.6,29.93,South,180,0.0,0.0,88,0.00,,,0.00,WUHU216HW,2013-04-30 11:17:00,
2013-04-30 07:22:00,65.2,61.6,29.93,South,180,0.0,0.0,88,0.00,,,0.00,WUHU216HW,2013-04-30 11:22:00,
2013-04-30 07:27:00,65.2,61.6,29.94,South,180,0.0,0.0,88,0.00,,,0.00,WUHU216HW,2013-04-30 11:27:00,
2013-04-30 07:32:00,65.3,61.8,29.94,SSW,203,0.0,0.0,88,0.00,,,0.00,WUHU216HW,2013-04-30 11:32:00,
2013-04-30 07:37:00,65.5,61.8,29.94,SSW,203,0.0,0.0,88,0.00,,,0.00,WUHU216HW,2013-04-30 11:37:00,
2013-04-30 07:42:00,65.7,62.0,29.94,SSW,203,0.0,0.0,88,0.00,,,0.00,WUHU216HW,2013-04-30 11:42:00,
2013-04-30 07:47:00,65.9,62.2,29.94,SSW,203,0.0,0.0,88,0.00,,,0.00,WUHU216HW,2013-04-30 11:47:00,
2013-04-30 07:52:00,66.1,62.4,29.94,SSW,203,0.0,0.0,88,0.00,,,0.00,WUHU216HW,2013-04-30 11:52:00,
2013-04-30 07:57:00,66.1,62.7,29.95,SSW,203,0.0,0.0,89,0.00,,,0.00,WUHU216HW,2013-04-30 11:57:00,
2013-04-30 08:02:00,66.2,62.8,29.95,SSW,203,0.0,0.0,89,0.00,,,0.00,WUHU216HW,2013-04-30 12:02:00,
2013-04-30 08:07:00,66.4,63.0,29.95,SSW,203,0.0,0.0,89,0.00,,,0.00,WUHU216HW,2013-04-30 12:07:00,
2013-04-30 08:12:00,66.6,63.2,29.96,SSW,203,0.0,0.0,89,0.00,,,0.00,WUHU216HW,2013-04-30 12:12:00,
2013-04-30 08:17:00,66.8,63.4,29.96,SSW,203,0.0,0.0,89,0.00,,,0.00,WUHU216HW,2013-04-30 12:17:00,
2013-04-30 08:22:00,67.1,63.7,29.96,SSW,203,0.2,0.2,89,0.00,,,0.00,WUHU216HW,2013-04-30 12:22:00,
2013-04-30 08:27:00,67.3,63.9,29.96,SSW,203,0.0,0.4,89,0.00,,,0.00,WUHU216HW,2013-04-30 12:27:00,
2013-04-30 08:32:00,67.5,64.1,29.96,SSW,203,0.0,0.4,89,0.00,,,0.00,WUHU216HW,2013-04-30 12:32:00,
2013-04-30 08:37:00,67.7,64.3,29.96,SSW,203,0.0,0.2,89,0.00,,,0.00,WUHU216HW,2013-04-30 12:37:00,
2013-04-30 08:42:00,67.9,64.4,29.95,SSW,203,0.0,0.7,89,0.00,,,0.00,WUHU216HW,2013-04-30 12:42:00,
2013-04-30 08:47:00,67.9,64.4,29.96,SSW,203,0.0,0.7,89,0.00,,,0.00,WUHU216HW,2013-04-30 12:47:00,
2013-04-30 08:52:00,68.0,64.6,29.96,SSW,203,0.0,0.0,89,0.00,,,0.00,WUHU216HW,2013-04-30 12:52:00,
2013-04-30 08:57:00,68.2,64.8,29.96,SSW,203,0.0,0.0,89,0.00,,,0.00,WUHU216HW,2013-04-30 12:57:00,
2013-04-30 09:02:00,68.4,65.0,29.96,SSW,203,0.0,0.0,89,0.00,,,0.00,WUHU216HW,2013-04-30 13:02:00,
2013-04-30 09:07:00,68.4,65.0,29.96,SSW,203,0.0,0.0,89,0.00,,,0.00,WUHU216HW,2013-04-30 13:07:00,
2013-04-30 09:12:00,68.4,65.0,29.96,SSW,203,0.0,0.2,89,0.00,,,0.00,WUHU216HW,2013-04-30 13:12:00,
2013-04-30 09:17:00,68.6,65.2,29.96,SSW,203,0.0,0.2,89,0.00,,,0.00,WUHU216HW,2013-04-30 13:17:00,
2013-04-30 09:22:00,68.8,65.3,29.96,SSW,203,0.0,0.0,89,0.00,,,0.00,WUHU216HW,2013-04-30 13:22:00,
2013-04-30 09:27:00,69.1,65.7,29.96,SSE,158,0.0,0.7,89,0.00,,,0.00,WUHU216HW,2013-04-30 13:27:00,
2013-04-30 09:32:00,69.5,66.1,29.96,SSE,158,0.0,0.7,89,0.00,,,0.00,WUHU216HW,2013-04-30 13:32:00,
2013-04-30 09:37:00,69.7,66.2,29.96,SSE,158,0.0,0.0,89,0.00,,,0.00,WUHU216HW,2013-04-30 13:37:00,
2013-04-30 09:42:00,69.8,66.4,29.96,SSE,158,0.0,0.2,89,0.00,,,0.00,WUHU216HW,2013-04-30 13:42:00,
2013-04-30 09:47:00,70.0,66.6,29.96,SSE,158,0.0,0.2,89,0.00,,,0.00,WUHU216HW,2013-04-30 13:47:00,
2013-04-30 09:52:00,70.2,66.8,29.96,SSE,158,0.0,0.4,89,0.00,,,0.00,WUHU216HW,2013-04-30 13:52:00,
2013-04-30 09:57:00,70.6,67.1,29.97,NNE,23,0.0,0.4,89,0.00,,,0.00,WUHU216HW,2013-04-30 13:57:00,
2013-04-30 10:02:00,70.7,67.0,29.96,WNW,293,0.9,0.9,88,0.00,,,0.00,WUHU216HW,2013-04-30 14:02:00,
2013-04-30 10:07:00,71.3,67.5,29.96,NW,315,0.0,1.8,88,0.00,,,0.00,WUHU216HW,2013-04-30 14:07:00,
2013-04-30 10:12:00,72.4,68.6,29.96,WNW,293,0.2,1.8,88,0.00,,,0.00,WUHU216HW,2013-04-30 14:12:00,
2013-04-30 10:17:00,73.4,69.7,29.97,WNW,293,0.0,1.6,88,0.00,,,0.00,WUHU216HW,2013-04-30 14:17:00,
2013-04-30 10:22:00,74.5,70.5,29.97,SW,225,0.9,1.6,87,0.00,,,0.00,WUHU216HW,2013-04-30 14:22:00,
2013-04-30 10:27:00,76.3,71.5,29.96,South,180,0.4,3.4,85,0.00,,,0.00,WUHU216HW,2013-04-30 14:27:00,
2013-04-30 10:32:00,77.8,72.2,29.96,West,270,1.8,3.4,83,0.00,,,0.00,WUHU216HW,2013-04-30 14:32:00,
2013-04-30 10:37:00,78.5,70.7,29.96,NNW,338,0.0,2.2,77,0.00,,,0.00,WUHU216HW,2013-04-30 14:37:00,
2013-04-30 10:42:00,78.7,70.8,29.96,West,270,1.8,2.2,77,0.00,,,0.00,WUHU216HW,2013-04-30 14:42:00,
2013-04-30 10:47:00,79.4,70.4,29.96,NW,315,0.2,2.7,74,0.00,,,0.00,WUHU216HW,2013-04-30 14:47:00,
2013-04-30 10:52:00,79.4,71.1,29.96,SE,135,1.3,2.7,76,0.00,,,0.00,WUHU216HW,2013-04-30 14:52:00,
2013-04-30 10:57:00,79.7,70.8,29.96,NNW,338,0.0,2.0,74,0.00,,,0.00,WUHU216HW,2013-04-30 14:57:00,
2013-04-30 11:02:00,79.6,70.1,29.96,SE,135,1.8,1.8,73,0.00,,,0.00,WUHU216HW,2013-04-30 15:02:00,
2013-04-30 11:07:00,79.9,70.5,29.96,WSW,248,2.5,2.5,73,0.00,,,0.00,WUHU216HW,2013-04-30 15:07:00,
2013-04-30 11:12:00,80.8,71.4,29.96,SE,135,1.3,2.5,73,0.00,,,0.00,WUHU216HW,2013-04-30 15:12:00,
2013-04-30 11:17:00,81.4,71.5,29.97,North,0,0.2,2.5,72,0.00,,,0.00,WUHU216HW,2013-04-30 15:17:00,
2013-04-30 11:22:00,80.8,69.3,29.96,NW,315,0.4,1.3,68,0.00,,,0.00,WUHU216HW,2013-04-30 15:22:00,
2013-04-30 11:27:00,80.6,70.0,29.96,NW,315,0.0,2.5,70,0.00,,,0.00,WUHU216HW,2013-04-30 15:27:00,
2013-04-30 11:32:00,81.2,70.9,29.96,SW,225,1.8,2.5,71,0.00,,,0.00,WUHU216HW,2013-04-30 15:32:00,
2013-04-30 11:37:00,82.4,72.1,29.96,WNW,293,3.1,3.1,71,0.00,,,0.00,WUHU216HW,2013-04-30 15:37:00,
2013-04-30 11:42:00,83.0,71.7,29.96,West,270,1.8,3.1,69,0.00,,,0.00,WUHU216HW,2013-04-30 15:42:00,
2013-04-30 11:47:00,83.3,71.2,29.96,NW,315,1.3,2.0,67,0.00,,,0.00,WUHU216HW,2013-04-30 15:47:00,
2013-04-30 11:52:00,82.8,70.7,29.96,NW,315,0.2,1.3,67,0.00,,,0.00,WUHU216HW,2013-04-30 15:52:00,
2013-04-30 11:57:00,83.2,71.5,29.96,SSE,158,2.2,3.4,68,0.00,,,0.00,WUHU216HW,2013-04-30 15:57:00,
2013-04-30 12:02:00,84.2,72.1,29.95,NNW,338,0.4,3.4,67,0.00,,,0.00,WUHU216HW,2013-04-30 16:02:00,
2013-04-30 12:07:00,84.2,71.2,29.95,NW,315,0.7,2.7,65,0.00,,,0.00,WUHU216HW,2013-04-30 16:07:00,
2013-04-30 12:12:00,84.4,72.3,29.95,WSW,248,0.4,3.4,67,0.00,,,0.00,WUHU216HW,2013-04-30 16:12:00,
2013-04-30 12:17:00,83.9,69.9,29.95,NNW,338,0.0,3.4,63,0.00,,,0.00,WUHU216HW,2013-04-30 16:17:00,
2013-04-30 12:22:00,83.5,69.1,29.95,NNW,338,0.4,2.5,62,0.00,,,0.00,WUHU216HW,2013-04-30 16:22:00,
2013-04-30 12:27:00,84.1,70.1,29.95,WNW,293,0.4,2.5,63,0.00,,,0.00,WUHU216HW,2013-04-30 16:27:00,
2013-04-30 12:32:00,84.6,71.1,29.95,NNW,338,0.7,2.0,64,0.00,,,0.00,WUHU216HW,2013-04-30 16:32:00,
2013-04-30 12:37:00,85.3,71.3,29.95,NNW,338,0.2,2.5,63,0.00,,,0.00,WUHU216HW,2013-04-30 16:37:00,
2013-04-30 12:42:00,84.8,68.4,29.95,ESE,113,2.9,2.9,58,0.00,,,0.00,WUHU216HW,2013-04-30 16:42:00,
2013-04-30 12:47:00,84.4,69.6,29.95,NNW,338,0.0,2.9,61,0.00,,,0.00,WUHU216HW,2013-04-30 16:47:00,
2013-04-30 12:52:00,83.7,68.4,29.95,North,0,0.0,1.6,60,0.00,,,0.00,WUHU216HW,2013-04-30 16:52:00,
2013-04-30 12:57:00,83.5,70.0,29.94,ENE,68,0.2,2.2,64,0.00,,,0.00,WUHU216HW,2013-04-30 16:57:00,
2013-04-30 13:02:00,84.6,70.7,29.94,SE,135,1.1,2.7,63,0.00,,,0.00,WUHU216HW,2013-04-30 17:02:00,
2013-04-30 13:07:00,85.0,70.5,29.94,ENE,68,1.3,4.9,62,0.00,,,0.00,WUHU216HW,2013-04-30 17:07:00,
2013-04-30 13:12:00,82.8,68.9,29.94,NE,45,4.9,4.9,63,0.00,,,0.00,WUHU216HW,2013-04-30 17:12:00,
2013-04-30 13:17:00,81.4,68.4,29.94,ESE,113,2.9,4.9,65,0.00,,,0.00,WUHU216HW,2013-04-30 17:17:00,
2013-04-30 13:22:00,81.0,68.6,29.93,SSE,158,1.1,4.9,66,0.00,,,0.00,WUHU216HW,2013-04-30 17:22:00,
2013-04-30 13:27:00,80.8,68.4,29.94,NE,45,3.8,5.4,66,0.00,,,0.00,WUHU216HW,2013-04-30 17:27:00,
2013-04-30 13:32:00,79.9,68.4,29.94,SE,135,1.8,6.9,68,0.00,,,0.00,WUHU216HW,2013-04-30 17:32:00,
2013-04-30 13:37:00,80.1,69.5,29.94,East,90,4.7,6.9,70,0.00,,,0.00,WUHU216HW,2013-04-30 17:37:00,
2013-04-30 13:42:00,81.0,68.1,29.94,ENE,68,4.0,6.9,65,0.00,,,0.00,WUHU216HW,2013-04-30 17:42:00,
2013-04-30 13:47:00,81.0,69.5,29.94,North,0,0.4,6.9,68,0.00,,,0.00,WUHU216HW,2013-04-30 17:47:00,
2013-04-30 13:52:00,81.2,68.7,29.94,NE,45,4.0,4.9,66,0.00,,,0.00,WUHU216HW,2013-04-30 17:52:00,
2013-04-30 13:57:00,80.6,68.7,29.94,SE,135,3.4,4.5,67,0.00,,,0.00,WUHU216HW,2013-04-30 17:57:00,
2013-04-30 14:02:00,81.0,69.0,29.93,East,90,2.9,4.3,67,0.00,,,0.00,WUHU216HW,2013-04-30 18:02:00,
2013-04-30 14:07:00,80.8,68.4,29.93,NE,45,2.2,5.4,66,0.00,,,0.00,WUHU216HW,2013-04-30 18:07:00,
2013-04-30 14:12:00,80.6,67.8,29.93,NNW,338,4.0,5.8,65,0.00,,,0.00,WUHU216HW,2013-04-30 18:12:00,
2013-04-30 14:17:00,80.6,68.2,29.93,ESE,113,1.6,5.8,66,0.00,,,0.00,WUHU216HW,2013-04-30 18:17:00,
2013-04-30 14:22:00,80.6,67.8,29.93,North,0,0.4,5.4,65,0.00,,,0.00,WUHU216HW,2013-04-30 18:22:00,
2013-04-30 14:27:00,80.8,68.4,29.93,NE,45,0.7,4.9,66,0.00,,,0.00,WUHU216HW,2013-04-30 18:27:00,
2013-04-30 14:32:00,80.6,68.2,29.93,NNW,338,0.4,2.0,66,0.00,,,0.00,WUHU216HW,2013-04-30 18:32:00,
2013-04-30 14:37:00,80.8,68.0,29.94,ENE,68,5.6,5.6,65,0.00,,,0.00,WUHU216HW,2013-04-30 18:37:00,
2013-04-30 14:42:00,80.6,68.7,29.94,NNW,338,0.7,5.6,67,0.00,,,0.00,WUHU216HW,2013-04-30 18:42:00,
2013-04-30 14:47:00,80.6,68.2,29.94,SE,135,1.8,4.7,66,0.00,,,0.00,WUHU216HW,2013-04-30 18:47:00,
2013-04-30 14:52:00,80.1,68.6,29.94,North,0,0.4,4.0,68,0.00,,,0.00,WUHU216HW,2013-04-30 18:52:00,
2013-04-30 14:57:00,80.1,68.1,29.94,ENE,68,2.0,3.8,67,0.00,,,0.00,WUHU216HW,2013-04-30 18:57:00,
2013-04-30 15:02:00,79.7,67.3,29.94,NNW,338,3.8,7.6,66,0.00,,,0.00,WUHU216HW,2013-04-30 19:02:00,
2013-04-30 15:07:00,79.6,68.0,29.94,ESE,113,3.6,7.6,68,0.00,,,0.00,WUHU216HW,2013-04-30 19:07:00,
2013-04-30 15:12:00,79.9,67.5,29.93,NNW,338,1.3,5.6,66,0.00,,,0.00,WUHU216HW,2013-04-30 19:12:00,
2013-04-30 15:17:00,79.6,67.1,29.93,East,90,2.2,5.6,66,0.00,,,0.00,WUHU216HW,2013-04-30 19:17:00,
2013-04-30 15:22:00,78.8,67.3,29.94,ENE,68,2.0,4.0,68,0.00,,,0.00,WUHU216HW,2013-04-30 19:22:00,
2013-04-30 15:27:00,78.5,67.5,29.93,NE,45,1.8,5.8,69,0.00,,,0.00,WUHU216HW,2013-04-30 19:27:00,
2013-04-30 15:32:00,78.5,66.6,29.93,ESE,113,3.1,7.2,67,0.00,,,0.00,WUHU216HW,2013-04-30 19:32:00,
2013-04-30 15:37:00,78.3,66.9,29.93,North,0,2.7,7.2,68,0.00,,,0.00,WUHU216HW,2013-04-30 19:37:00,
2013-04-30 15:42:00,78.1,66.7,29.93,North,0,0.4,4.9,68,0.00,,,0.00,WUHU216HW,2013-04-30 19:42:00,
2013-04-30 15:47:00,77.6,67.1,29.94,SE,135,6.3,6.3,70,0.00,,,0.00,WUHU216HW,2013-04-30 19:47:00,
2013-04-30 15:52:00,77.8,67.2,29.93,NNW,338,2.5,8.5,70,0.00,,,0.00,WUHU216HW,2013-04-30 19:52:00,
2013-04-30 15:57:00,77.9,67.4,29.93,ESE,113,3.4,8.5,70,0.00,,,0.00,WUHU216HW,2013-04-30 19:57:00,
2013-04-30 16:02:00,77.8,66.8,29.93,ESE,113,1.8,5.8,69,0.00,,,0.00,WUHU216HW,2013-04-30 20:02:00,
2013-04-30 16:07:00,77.6,67.1,29.94,ESE,113,1.8,6.0,70,0.00,,,0.00,WUHU216HW,2013-04-30 20:07:00,
2013-04-30 16:12:00,77.4,67.3,29.93,ENE,68,5.4,7.4,71,0.00,,,0.00,WUHU216HW,2013-04-30 20:12:00,
2013-04-30 16:17:00,77.4,67.3,29.93,East,90,3.4,7.4,71,0.00,,,0.00,WUHU216HW,2013-04-30 20:17:00,
2013-04-30 16:22:00,77.8,67.2,29.93,SE,135,1.1,5.4,70,0.00,,,0.00,WUHU216HW,2013-04-30 20:22:00,
2013-04-30 16:27:00,77.4,67.0,29.93,West,270,4.0,6.9,70,0.00,,,0.00,WUHU216HW,2013-04-30 20:27:00,
2013-04-30 16:32:00,76.7,66.6,29.93,East,90,3.8,8.7,71,0.00,,,0.00,WUHU216HW,2013-04-30 20:32:00,
2013-04-30 16:37:00,76.7,67.0,29.93,WSW,248,2.2,8.7,72,0.00,,,0.00,WUHU216HW,2013-04-30 20:37:00,
2013-04-30 16:42:00,76.7,67.0,29.93,ENE,68,4.5,8.7,72,0.00,,,0.00,WUHU216HW,2013-04-30 20:42:00,
2013-04-30 16:47:00,76.7,67.0,29.93,East,90,2.9,6.3,72,0.00,,,0.00,WUHU216HW,2013-04-30 20:47:00,
2013-04-30 16:52:00,77.0,67.8,29.93,NNE,23,0.9,5.1,73,0.00,,,0.00,WUHU216HW,2013-04-30 20:52:00,
2013-04-30 16:57:00,77.2,67.1,29.93,North,0,1.8,5.1,71,0.00,,,0.00,WUHU216HW,2013-04-30 20:57:00,
2013-04-30 17:02:00,77.2,66.8,29.93,East,90,3.6,3.6,70,0.00,,,0.00,WUHU216HW,2013-04-30 21:02:00,
2013-04-30 17:07:00,76.9,66.8,29.93,North,0,0.4,7.6,71,0.00,,,0.00,WUHU216HW,2013-04-30 21:07:00,
2013-04-30 17:12:00,76.7,66.6,29.93,NNE,23,0.9,7.6,71,0.00,,,0.00,WUHU216HW,2013-04-30 21:12:00,
2013-04-30 17:17:00,76.7,65.8,29.93,NNW,338,1.1,7.4,69,0.00,,,0.00,WUHU216HW,2013-04-30 21:17:00,
2013-04-30 17:22:00,76.7,66.6,29.93,East,90,1.3,7.4,71,0.00,,,0.00,WUHU216HW,2013-04-30 21:22:00,
2013-04-30 17:27:00,76.9,66.4,29.93,NE,45,4.0,5.4,70,0.00,,,0.00,WUHU216HW,2013-04-30 21:27:00,
2013-04-30 17:32:00,76.7,66.6,29.94,SE,135,1.1,5.4,71,0.00,,,0.00,WUHU216HW,2013-04-30 21:32:00,
2013-04-30 17:37:00,76.1,65.7,29.94,WNW,293,3.4,7.8,70,0.00,,,0.00,WUHU216HW,2013-04-30 21:37:00,
2013-04-30 17:42:00,76.0,65.9,29.94,NW,315,0.4,7.8,71,0.00,,,0.00,WUHU216HW,2013-04-30 21:42:00,
2013-04-30 17:47:00,76.1,65.7,29.94,ESE,113,0.4,6.0,70,0.00,,,0.00,WUHU216HW,2013-04-30 21:47:00,
2013-04-30 17:52:00,76.3,65.9,29.94,NE,45,0.9,6.0,70,0.00,,,0.00,WUHU216HW,2013-04-30 21:52:00,
2013-04-30 17:57:00,75.8,65.3,29.94,NNW,338,2.5,5.4,70,0.00,,,0.00,WUHU216HW,2013-04-30 21:57:00,
2013-04-30 18:02:00,75.8,65.7,29.94,East,90,1.8,5.4,71,0.00,,,0.00,WUHU216HW,2013-04-30 22:02:00,
2013-04-30 18:07:00,75.6,65.2,29.94,East,90,3.6,3.8,70,0.00,,,0.00,WUHU216HW,2013-04-30 22:07:00,
2013-04-30 18:12:00,75.2,65.2,29.93,NE,45,4.0,6.9,71,0.00,,,0.00,WUHU216HW,2013-04-30 22:12:00,
2013-04-30 18:17:00,74.9,64.9,29.94,SE,135,2.5,6.9,71,0.00,,,0.00,WUHU216HW,2013-04-30 22:17:00,
2013-04-30 18:22:00,74.7,64.7,29.94,ESE,113,1.3,5.4,71,0.00,,,0.00,WUHU216HW,2013-04-30 22:22:00,
2013-04-30 18:27:00,74.9,64.9,29.94,ESE,113,1.1,4.0,71,0.00,,,0.00,WUHU216HW,2013-04-30 22:27:00,
2013-04-30 18:32:00,74.9,65.3,29.94,East,90,4.0,4.7,72,0.00,,,0.00,WUHU216HW,2013-04-30 22:32:00,
2013-04-30 18:37:00,74.5,64.5,29.94,ESE,113,3.6,4.7,71,0.00,,,0.00,WUHU216HW,2013-04-30 22:37:00,
2013-04-30 18:42:00,74.0,64.5,29.94,ENE,68,4.7,8.1,72,0.00,,,0.00,WUHU216HW,2013-04-30 22:42:00,
2013-04-30 18:47:00,73.8,64.6,29.94,East,90,1.3,8.1,73,0.00,,,0.00,WUHU216HW,2013-04-30 22:47:00,
2013-04-30 18:52:00,73.8,65.1,29.94,ENE,68,2.0,4.5,74,0.00,,,0.00,WUHU216HW,2013-04-30 22:52:00,
2013-04-30 18:57:00,73.6,64.9,29.95,SE,135,3.8,6.3,74,0.00,,,0.00,WUHU216HW,2013-04-30 22:57:00,
2013-04-30 19:02:00,73.1,64.7,29.94,SE,135,0.7,6.3,75,0.00,,,0.00,WUHU216HW,2013-04-30 23:02:00,
2013-04-30 19:07:00,72.9,64.5,29.94,NW,315,0.2,3.8,75,0.00,,,0.00,WUHU216HW,2013-04-30 23:07:00,
2013-04-30 19:12:00,72.5,64.5,29.94,ENE,68,0.9,7.6,76,0.00,,,0.00,WUHU216HW,2013-04-30 23:12:00,
2013-04-30 19:17:00,72.2,64.2,29.94,NE,45,1.1,7.6,76,0.00,,,0.00,WUHU216HW,2013-04-30 23:17:00,
2013-04-30 19:22:00,72.0,64.4,29.95,North,0,2.9,4.5,77,0.00,,,0.00,WUHU216HW,2013-04-30 23:22:00,
2013-04-30 19:27:00,72.0,64.4,29.95,NNW,338,4.3,4.5,77,0.00,,,0.00,WUHU216HW,2013-04-30 23:27:00,
2013-04-30 19:32:00,71.8,64.2,29.96,SE,135,1.6,4.3,77,0.00,,,0.00,WUHU216HW,2013-04-30 23:32:00,
2013-04-30 19:37:00,71.6,64.5,29.96,NW,315,2.2,4.3,78,0.00,,,0.00,WUHU216HW,2013-04-30 23:37:00,
2013-04-30 19:42:00,71.3,64.5,29.96,ESE,113,1.8,4.7,79,0.00,,,0.00,WUHU216HW,2013-04-30 23:42:00,
2013-04-30 19:47:00,71.1,64.3,29.96,East,90,2.2,4.7,79,0.00,,,0.00,WUHU216HW,2013-04-30 23:47:00,
2013-04-30 19:52:00,71.1,64.3,29.97,East,90,1.3,4.0,79,0.00,,,0.00,WUHU216HW,2013-04-30 23:52:00,
2013-04-30 19:57:00,70.9,64.4,29.97,ESE,113,1.3,4.0,80,0.00,,,0.00,WUHU216HW,2013-04-30 23:57:00,
2013-04-30 20:02:00,70.7,64.3,29.97,East,90,0.4,3.4,80,0.00,,,0.00,WUHU216HW,2013-05-01 00:02:00,
2013-04-30 20:07:00,70.6,64.1,29.97,East,90,1.1,3.4,80,0.00,,,0.00,WUHU216HW,2013-05-01 00:07:00,
2013-04-30 20:12:00,70.4,63.9,29.97,NNE,23,1.1,2.5,80,0.00,,,0.00,WUHU216HW,2013-05-01 00:12:00,
2013-04-30 20:17:00,70.4,64.3,29.96,ESE,113,1.8,3.4,81,0.00,,,0.00,WUHU216HW,2013-05-01 00:17:00,
2013-04-30 20:22:00,70.2,64.5,29.97,ENE,68,0.7,3.4,82,0.00,,,0.00,WUHU216HW,2013-05-01 00:22:00,
2013-04-30 20:27:00,70.2,64.5,29.97,East,90,1.8,3.4,82,0.00,,,0.00,WUHU216HW,2013-05-01 00:27:00,
2013-04-30 20:32:00,70.0,64.3,29.97,NNE,23,0.4,2.9,82,0.00,,,0.00,WUHU216HW,2013-05-01 00:32:00,
2013-04-30 20:37:00,70.0,64.3,29.97,South,180,0.4,2.9,82,0.00,,,0.00,WUHU216HW,2013-05-01 00:37:00,
2013-04-30 20:42:00,70.0,64.3,29.97,West,270,1.3,2.5,82,0.00,,,0.00,WUHU216HW,2013-05-01 00:42:00,
2013-04-30 20:47:00,69.8,64.1,29.97,ENE,68,1.1,3.4,82,0.00,,,0.00,WUHU216HW,2013-05-01 00:47:00,
2013-04-30 20:52:00,69.8,64.1,29.98,SE,135,0.7,3.4,82,0.00,,,0.00,WUHU216HW,2013-05-01 00:52:00,
2013-04-30 20:57:00,69.8,64.1,29.98,ESE,113,1.3,2.5,82,0.00,,,0.00,WUHU216HW,2013-05-01 00:57:00,
2013-04-30 21:02:00,69.8,64.1,29.98,ESE,113,1.1,2.5,82,0.00,,,0.00,WUHU216HW,2013-05-01 01:02:00,
2013-04-30 21:07:00,69.7,64.3,29.98,ESE,113,1.1,2.2,83,0.00,,,0.00,WUHU216HW,2013-05-01 01:07:00,
2013-04-30 21:12:00,69.5,63.7,29.98,ENE,68,0.7,2.0,82,0.00,,,0.00,WUHU216HW,2013-05-01 01:12:00,
2013-04-30 21:17:00,69.5,63.7,29.98,ESE,113,0.7,1.8,82,0.00,,,0.00,WUHU216HW,2013-05-01 01:17:00,
2013-04-30 21:22:00,69.3,63.5,29.99,ESE,113,0.9,1.8,82,0.00,,,0.00,WUHU216HW,2013-05-01 01:22:00,
2013-04-30 21:27:00,69.3,63.5,29.99,ESE,113,0.4,1.1,82,0.00,,,0.00,WUHU216HW,2013-05-01 01:27:00,
2013-04-30 21:32:00,69.3,63.5,29.99,ESE,113,0.2,1.3,82,0.00,,,0.00,WUHU216HW,2013-05-01 01:32:00,
2013-04-30 21:37:00,69.1,63.7,29.99,ESE,113,0.0,1.3,83,0.00,,,0.00,WUHU216HW,2013-05-01 01:37:00,
2013-04-30 21:42:00,68.9,63.5,29.99,ESE,113,0.0,0.9,83,0.00,,,0.00,WUHU216HW,2013-05-01 01:42:00,
2013-04-30 21:47:00,68.8,63.4,29.99,ESE,113,0.0,0.9,83,0.00,,,0.00,WUHU216HW,2013-05-01 01:47:00,
2013-04-30 21:52:00,68.6,63.5,29.99,ESE,113,0.0,0.2,84,0.00,,,0.00,WUHU216HW,2013-05-01 01:52:00,
2013-04-30 21:57:00,68.4,63.4,29.99,East,90,1.1,1.1,84,0.00,,,0.00,WUHU216HW,2013-05-01 01:57:00,
2013-04-30 22:02:00,68.4,63.4,30.00,ESE,113,0.0,1.1,84,0.00,,,0.00,WUHU216HW,2013-05-01 02:02:00,
2013-04-30 22:07:00,68.4,63.4,30.00,ESE,113,0.4,0.9,84,0.00,,,0.00,WUHU216HW,2013-05-01 02:07:00,
2013-04-30 22:12:00,68.2,63.2,30.00,ESE,113,0.4,0.4,84,0.00,,,0.00,WUHU216HW,2013-05-01 02:12:00,
2013-04-30 22:17:00,68.2,63.2,30.00,ESE,113,0.0,0.4,84,0.00,,,0.00,WUHU216HW,2013-05-01 02:17:00,
2013-04-30 22:22:00,68.0,63.0,30.00,ESE,113,0.0,0.4,84,0.00,,,0.00,WUHU216HW,2013-05-01 02:22:00,
2013-04-30 22:27:00,68.0,63.0,30.00,ESE,113,0.0,0.2,84,0.00,,,0.00,WUHU216HW,2013-05-01 02:27:00,
2013-04-30 22:32:00,67.7,62.6,30.00,ESE,113,0.0,0.0,84,0.00,,,0.00,WUHU216HW,2013-05-01 02:32:00,
2013-04-30 22:37:00,67.7,62.6,29.99,NE,45,0.2,0.4,84,0.00,,,0.00,WUHU216HW,2013-05-01 02:37:00,
2013-04-30 22:42:00,67.7,62.6,29.99,ENE,68,0.0,0.4,84,0.00,,,0.00,WUHU216HW,2013-05-01 02:42:00,
2013-04-30 22:47:00,67.7,62.6,29.99,ENE,68,0.0,0.2,84,0.00,,,0.00,WUHU216HW,2013-05-01 02:47:00,
2013-04-30 22:52:00,67.5,62.5,30.00,ENE,68,0.0,0.0,84,0.00,,,0.00,WUHU216HW,2013-05-01 02:52:00,
2013-04-30 22:57:00,67.7,62.6,30.00,ENE,68,0.0,0.0,84,0.00,,,0.00,WUHU216HW,2013-05-01 02:57:00,
2013-04-30 23:02:00,67.5,62.5,30.00,ENE,68,0.0,0.0,84,0.00,,,0.00,WUHU216HW,2013-05-01 03:02:00,
2013-04-30 23:07:00,67.3,62.3,30.00,ENE,68,0.0,0.0,84,0.00,,,0.00,WUHU216HW,2013-05-01 03:07:00,
2013-04-30 23:12:00,67.1,62.1,30.00,NE,45,0.0,0.0,84,0.00,,,0.00,WUHU216HW,2013-05-01 03:12:00,
2013-04-30 23:17:00,67.0,61.9,29.99,NE,45,0.0,0.0,84,0.00,,,0.00,WUHU216HW,2013-05-01 03:17:00,
2013-04-30 23:22:00,67.0,61.9,29.99,NE,45,0.0,0.0,84,0.00,,,0.00,WUHU216HW,2013-05-01 03:22:00,
2013-04-30 23:27:00,66.8,61.7,30.00,NE,45,0.0,0.0,84,0.00,,,0.00,WUHU216HW,2013-05-01 03:27:00,
2013-04-30 23:32:00,66.6,61.6,30.00,NE,45,0.0,0.0,84,0.00,,,0.00,WUHU216HW,2013-05-01 03:32:00,
2013-04-30 23:37:00,66.4,61.4,30.00,NE,45,0.0,0.0,84,0.00,,,0.00,WUHU216HW,2013-05-01 03:37:00,
2013-04-30 23:42:00,66.2,61.2,30.00,NE,45,0.0,0.0,84,0.00,,,0.00,WUHU216HW,2013-05-01 03:42:00,
2013-04-30 23:47:00,66.2,61.2,30.00,North,0,0.0,0.0,84,0.00,,,0.00,WUHU216HW,2013-05-01 03:47:00,
2013-04-30 23:52:00,66.2,61.2,30.00,North,0,0.0,0.0,84,0.00,,,0.00,WUHU216HW,2013-05-01 03:52:00,
2013-04-30 23:57:00,66.1,61.0,30.00,North,0,0.0,0.0,84,0.00,,,0.00,WUHU216HW,2013-05-01 03:57:00,